Location: C.E.K. Mees Observatory
(42.7003°N, 77.4088°W)
Time: 17:52:01
(UTC-05:00)

Tiangong 2 - Pass Details

Date: 09 October 2017
Orbit: 386 x 390 km, 42.8° (Epoch: 14 December)

Event Time Altitude Azimuth Distance (km) Brightness Sun altitude
Exits shadow 04:55:35 11° 128° (SE) 1,370 4.2 -26.4°
Drops below altitude 10° 04:55:56 10° 122° (ESE) 1,419 4.4 -26.3°
Sets 04:59:04 0° 89° (E) 2,281 6.2 -25.8°
